Location: Passau
(48.5830°N, 13.4830°E)
Time: 21:26:44
(UTC+02:00)

Vanguard 3 - Pass Details

Date: 26 May 2024
Orbit: 509 x 3231 km, 33.3° (Epoch: 16 June)

Event Time Altitude Azimuth Distance (km) Brightness Sun altitude
Rises 20:29:23 0° 244° (WSW) 4,018 11.2 2.7°
Reaches altitude 10° 20:31:57 10° 235° (SW) 3,355 10.7 2.3°
Maximum altitude 20:39:52 36° 173° (S) 2,690 9.5 1.2°
Drops below altitude 10° 20:52:34 10° 115° (ESE) 5,384 10.7 -0.6°
Sets 20:57:59 0° 108° (ESE) 6,746 11.2 -1.3°
